Time,TemperatureF,DewpointF,PressureIn,WindDirection,WindDirectionDegrees,WindSpeedMPH,WindSpeedGustMPH,Humidity,HourlyPrecipIn,Conditions,Clouds,dailyrainin,SoftwareType,DateUTC
2013-04-17 00:00:00,67.9,67.0,30.17,NW,318,0.0,0.0,97,0.00,,,0.00,WUHU216DAVISVP2,2013-04-17 04:00:00,
2013-04-17 00:05:00,67.9,67.0,30.17,NW,318,0.0,0.0,97,0.00,,,0.00,WUHU216DAVISVP2,2013-04-17 04:05:00,
2013-04-17 00:10:00,67.9,67.0,30.17,West,259,0.0,1.0,97,0.00,,,0.00,WUHU216DAVISVP2,2013-04-17 04:10:00,
2013-04-17 00:15:00,67.9,67.0,30.17,West,259,0.0,1.0,97,0.00,,,0.00,WUHU216DAVISVP2,2013-04-17 04:15:00,
2013-04-17 00:20:00,67.9,67.0,30.17,WNW,284,0.0,1.0,97,0.00,,,0.00,WUHU216DAVISVP2,2013-04-17 04:20:00,
2013-04-17 00:25:00,67.9,67.0,30.16,WNW,284,0.0,1.0,97,0.00,,,0.00,WUHU216DAVISVP2,2013-04-17 04:25:00,
2013-04-17 00:30:00,67.9,66.7,30.16,WNW,284,0.0,0.0,96,0.00,,,0.00,WUHU216DAVISVP2,2013-04-17 04:30:00,
2013-04-17 00:35:00,67.9,67.0,30.16,WNW,287,0.0,2.0,97,0.00,,,0.00,WUHU216DAVISVP2,2013-04-17 04:35:00,
2013-04-17 00:40:00,67.9,66.7,30.16,WNW,287,0.0,2.0,96,0.00,,,0.00,WUHU216DAVISVP2,2013-04-17 04:40:00,
2013-04-17 00:45:00,67.9,66.7,30.16,WNW,287,0.0,0.0,96,0.00,,,0.00,WUHU216DAVISVP2,2013-04-17 04:45:00,
2013-04-17 00:50:00,67.8,66.6,30.16,WNW,287,0.0,0.0,96,0.00,,,0.00,WUHU216DAVISVP2,2013-04-17 04:50:00,
2013-04-17 00:55:00,67.7,66.5,30.16,WNW,287,0.0,0.0,96,0.00,,,0.00,WUHU216DAVISVP2,2013-04-17 04:55:00,
2013-04-17 01:00:00,67.7,66.5,30.16,WNW,287,0.0,0.0,96,0.00,,,0.00,WUHU216DAVISVP2,2013-04-17 05:00:00,
2013-04-17 01:05:00,67.6,66.4,30.16,WNW,286,0.0,0.0,96,0.00,,,0.00,WUHU216DAVISVP2,2013-04-17 05:05:00,
2013-04-17 01:10:00,67.6,66.4,30.16,WNW,286,0.0,0.0,96,0.00,,,0.00,WUHU216DAVISVP2,2013-04-17 05:10:00,
2013-04-17 01:15:00,67.5,66.3,30.16,WNW,286,0.0,0.0,96,0.00,,,0.00,WUHU216DAVISVP2,2013-04-17 05:15:00,
2013-04-17 01:20:00,67.4,66.2,30.16,WNW,286,0.0,0.0,96,0.00,,,0.00,WUHU216DAVISVP2,2013-04-17 05:20:00,
2013-04-17 01:25:00,67.4,66.2,30.16,WNW,287,0.0,0.0,96,0.00,,,0.00,WUHU216DAVISVP2,2013-04-17 05:25:00,
2013-04-17 01:30:00,67.3,66.1,30.16,WNW,287,0.0,0.0,96,0.00,,,0.00,WUHU216DAVISVP2,2013-04-17 05:30:00,
2013-04-17 01:35:00,67.3,66.4,30.16,WNW,287,0.0,1.0,97,0.00,,,0.00,WUHU216DAVISVP2,2013-04-17 05:35:00,
2013-04-17 01:40:00,67.2,66.3,30.16,WNW,287,0.0,1.0,97,0.00,,,0.00,WUHU216DAVISVP2,2013-04-17 05:40:00,
2013-04-17 01:45:00,67.3,66.4,30.16,WNW,286,0.0,0.0,97,0.00,,,0.00,WUHU216DAVISVP2,2013-04-17 05:45:00,
2013-04-17 01:50:00,67.3,66.4,30.16,WNW,287,0.0,0.0,97,0.00,,,0.00,WUHU216DAVISVP2,2013-04-17 05:50:00,
2013-04-17 01:55:00,67.4,66.5,30.15,WNW,287,0.0,0.0,97,0.00,,,0.00,WUHU216DAVISVP2,2013-04-17 05:55:00,
2013-04-17 02:00:00,67.4,66.5,30.15,WNW,287,0.0,0.0,97,0.00,,,0.00,WUHU216DAVISVP2,2013-04-17 06:00:00,
2013-04-17 02:05:00,67.4,66.5,30.15,WNW,287,0.0,0.0,97,0.00,,,0.00,WUHU216DAVISVP2,2013-04-17 06:05:00,
2013-04-17 02:10:00,67.4,66.5,30.15,WNW,287,0.0,0.0,97,0.00,,,0.00,WUHU216DAVISVP2,2013-04-17 06:10:00,
2013-04-17 02:15:00,67.4,66.5,30.15,WNW,287,0.0,0.0,97,0.00,,,0.00,WUHU216DAVISVP2,2013-04-17 06:15:00,
2013-04-17 02:20:00,67.4,66.5,30.15,WNW,287,0.0,0.0,97,0.00,,,0.00,WUHU216DAVISVP2,2013-04-17 06:20:00,
2013-04-17 02:25:00,67.4,66.5,30.15,WNW,287,0.0,0.0,97,0.00,,,0.00,WUHU216DAVISVP2,2013-04-17 06:25:00,
2013-04-17 02:30:00,67.5,66.6,30.15,WNW,287,0.0,0.0,97,0.00,,,0.00,WUHU216DAVISVP2,2013-04-17 06:30:00,
2013-04-17 02:35:00,67.5,66.6,30.15,WNW,286,0.0,0.0,97,0.00,,,0.00,WUHU216DAVISVP2,2013-04-17 06:35:00,
2013-04-17 02:40:00,67.5,66.9,30.15,WNW,287,0.0,0.0,98,0.00,,,0.00,WUHU216DAVISVP2,2013-04-17 06:40:00,
2013-04-17 02:45:00,67.6,67.0,30.15,WNW,286,0.0,1.0,98,0.00,,,0.00,WUHU216DAVISVP2,2013-04-17 06:45:00,
2013-04-17 02:50:00,67.6,67.0,30.15,WNW,286,0.0,1.0,98,0.00,,,0.00,WUHU216DAVISVP2,2013-04-17 06:50:00,
2013-04-17 02:55:00,67.6,66.7,30.15,WNW,286,0.0,0.0,97,0.00,,,0.00,WUHU216DAVISVP2,2013-04-17 06:55:00,
2013-04-17 03:00:00,67.6,66.7,30.15,WNW,286,0.0,0.0,97,0.00,,,0.00,WUHU216DAVISVP2,2013-04-17 07:00:00,
2013-04-17 03:05:00,67.6,66.7,30.15,WNW,287,0.0,0.0,97,0.00,,,0.00,WUHU216DAVISVP2,2013-04-17 07:05:00,
2013-04-17 03:10:00,67.6,66.7,30.15,WNW,287,0.0,0.0,97,0.00,,,0.00,WUHU216DAVISVP2,2013-04-17 07:10:00,
2013-04-17 03:15:00,67.6,66.7,30.15,WNW,287,0.0,0.0,97,0.00,,,0.00,WUHU216DAVISVP2,2013-04-17 07:15:00,
2013-04-17 03:20:00,67.6,66.7,30.15,WNW,287,0.0,1.0,97,0.00,,,0.00,WUHU216DAVISVP2,2013-04-17 07:20:00,
2013-04-17 03:25:00,67.5,66.6,30.14,WNW,287,0.0,1.0,97,0.00,,,0.00,WUHU216DAVISVP2,2013-04-17 07:25:00,
2013-04-17 03:30:00,67.5,66.6,30.14,WNW,287,0.0,0.0,97,0.00,,,0.00,WUHU216DAVISVP2,2013-04-17 07:30:00,
2013-04-17 03:35:00,67.5,66.6,30.14,WNW,287,0.0,0.0,97,0.00,,,0.00,WUHU216DAVISVP2,2013-04-17 07:35:00,
2013-04-17 03:40:00,67.5,66.9,30.14,WNW,287,0.0,0.0,98,0.00,,,0.00,WUHU216DAVISVP2,2013-04-17 07:40:00,
2013-04-17 03:45:00,67.4,66.8,30.14,WNW,287,0.0,0.0,98,0.00,,,0.00,WUHU216DAVISVP2,2013-04-17 07:45:00,
2013-04-17 03:50:00,67.5,66.9,30.15,WNW,287,0.0,0.0,98,0.00,,,0.00,WUHU216DAVISVP2,2013-04-17 07:50:00,
2013-04-17 03:55:00,67.5,66.9,30.15,WNW,287,0.0,0.0,98,0.00,,,0.00,WUHU216DAVISVP2,2013-04-17 07:55:00,
2013-04-17 04:00:00,67.5,66.9,30.15,WNW,287,0.0,0.0,98,0.00,,,0.00,WUHU216DAVISVP2,2013-04-17 08:00:00,
2013-04-17 04:05:00,67.5,66.9,30.14,WNW,287,0.0,0.0,98,0.00,,,0.00,WUHU216DAVISVP2,2013-04-17 08:05:00,
2013-04-17 04:10:00,67.5,66.9,30.14,WNW,287,0.0,1.0,98,0.00,,,0.00,WUHU216DAVISVP2,2013-04-17 08:10:00,
2013-04-17 04:15:00,67.5,66.9,30.15,WNW,287,0.0,1.0,98,0.00,,,0.00,WUHU216DAVISVP2,2013-04-17 08:15:00,
2013-04-17 04:20:00,67.5,66.9,30.14,WNW,287,0.0,1.0,98,0.00,,,0.00,WUHU216DAVISVP2,2013-04-17 08:20:00,
2013-04-17 04:25:00,67.5,66.9,30.14,WNW,287,0.0,1.0,98,0.00,,,0.00,WUHU216DAVISVP2,2013-04-17 08:25:00,
2013-04-17 04:30:00,67.5,66.9,30.14,WNW,287,0.0,1.0,98,0.00,,,0.00,WUHU216DAVISVP2,2013-04-17 08:30:00,
2013-04-17 04:35:00,67.4,66.8,30.14,WNW,287,0.0,1.0,98,0.00,,,0.00,WUHU216DAVISVP2,2013-04-17 08:35:00,
2013-04-17 04:40:00,67.4,66.8,30.14,WNW,287,0.0,0.0,98,0.00,,,0.00,WUHU216DAVISVP2,2013-04-17 08:40:00,
2013-04-17 04:45:00,67.4,66.8,30.14,WNW,287,0.0,0.0,98,0.00,,,0.00,WUHU216DAVISVP2,2013-04-17 08:45:00,
2013-04-17 04:50:00,67.4,66.8,30.15,WNW,287,0.0,1.0,98,0.00,,,0.00,WUHU216DAVISVP2,2013-04-17 08:50:00,
2013-04-17 04:55:00,67.4,66.8,30.15,WNW,287,0.0,1.0,98,0.00,,,0.00,WUHU216DAVISVP2,2013-04-17 08:55:00,
2013-04-17 05:00:00,67.4,66.8,30.15,WNW,287,0.0,1.0,98,0.00,,,0.00,WUHU216DAVISVP2,2013-04-17 09:00:00,
2013-04-17 05:05:00,67.4,66.8,30.14,WNW,287,0.0,0.0,98,0.00,,,0.00,WUHU216DAVISVP2,2013-04-17 09:05:00,
2013-04-17 05:10:00,67.3,66.7,30.14,WNW,287,0.0,0.0,98,0.00,,,0.00,WUHU216DAVISVP2,2013-04-17 09:10:00,
2013-04-17 05:15:00,67.3,66.7,30.14,WNW,287,0.0,0.0,98,0.00,,,0.00,WUHU216DAVISVP2,2013-04-17 09:15:00,
2013-04-17 05:20:00,67.3,66.7,30.14,WNW,287,0.0,0.0,98,0.00,,,0.00,WUHU216DAVISVP2,2013-04-17 09:20:00,
2013-04-17 05:25:00,67.3,66.7,30.14,WNW,287,0.0,1.0,98,0.00,,,0.00,WUHU216DAVISVP2,2013-04-17 09:25:00,
2013-04-17 05:30:00,67.2,66.6,30.14,WNW,287,0.0,1.0,98,0.00,,,0.00,WUHU216DAVISVP2,2013-04-17 09:30:00,
2013-04-17 05:35:00,67.2,66.6,30.14,WNW,287,0.0,2.0,98,0.00,,,0.00,WUHU216DAVISVP2,2013-04-17 09:35:00,
2013-04-17 05:40:00,67.2,66.6,30.14,WNW,287,0.0,2.0,98,0.00,,,0.00,WUHU216DAVISVP2,2013-04-17 09:40:00,
2013-04-17 05:45:00,67.3,66.7,30.14,WNW,287,0.0,1.0,98,0.00,,,0.00,WUHU216DAVISVP2,2013-04-17 09:45:00,
2013-04-17 05:50:00,67.3,66.7,30.14,WNW,287,0.0,1.0,98,0.00,,,0.00,WUHU216DAVISVP2,2013-04-17 09:50:00,
2013-04-17 05:55:00,67.3,66.7,30.14,WNW,287,0.0,1.0,98,0.00,,,0.00,WUHU216DAVISVP2,2013-04-17 09:55:00,
2013-04-17 06:00:00,67.3,66.7,30.14,WNW,287,0.0,1.0,98,0.00,,,0.00,WUHU216DAVISVP2,2013-04-17 10:00:00,
2013-04-17 06:05:00,67.3,66.7,30.15,WNW,287,0.0,0.0,98,0.00,,,0.00,WUHU216DAVISVP2,2013-04-17 10:05:00,
2013-04-17 06:10:00,67.2,66.6,30.14,WNW,287,0.0,0.0,98,0.00,,,0.00,WUHU216DAVISVP2,2013-04-17 10:10:00,
2013-04-17 06:15:00,67.2,66.6,30.15,WNW,287,0.0,0.0,98,0.00,,,0.00,WUHU216DAVISVP2,2013-04-17 10:15:00,
2013-04-17 06:20:00,67.2,66.6,30.15,WNW,287,0.0,1.0,98,0.00,,,0.00,WUHU216DAVISVP2,2013-04-17 10:20:00,
2013-04-17 06:25:00,67.2,66.6,30.15,WNW,287,0.0,1.0,98,0.00,,,0.00,WUHU216DAVISVP2,2013-04-17 10:25:00,
2013-04-17 06:30:00,67.2,66.6,30.15,WNW,287,0.0,0.0,98,0.00,,,0.00,WUHU216DAVISVP2,2013-04-17 10:30:00,
2013-04-17 06:35:00,67.1,66.2,30.16,WNW,287,0.0,0.0,97,0.00,,,0.00,WUHU216DAVISVP2,2013-04-17 10:35:00,
2013-04-17 06:40:00,67.1,66.2,30.15,WNW,287,0.0,0.0,97,0.00,,,0.00,WUHU216DAVISVP2,2013-04-17 10:40:00,
2013-04-17 06:45:00,67.0,66.1,30.16,WNW,287,0.0,0.0,97,0.00,,,0.00,WUHU216DAVISVP2,2013-04-17 10:45:00,
2013-04-17 06:50:00,66.9,66.0,30.16,WNW,287,0.0,1.0,97,0.00,,,0.00,WUHU216DAVISVP2,2013-04-17 10:50:00,
2013-04-17 06:55:00,66.9,66.0,30.16,WNW,287,0.0,1.0,97,0.00,,,0.00,WUHU216DAVISVP2,2013-04-17 10:55:00,
2013-04-17 07:00:00,66.8,66.2,30.16,WNW,287,0.0,0.0,98,0.00,,,0.00,WUHU216DAVISVP2,2013-04-17 11:00:00,
2013-04-17 07:05:00,66.8,66.2,30.17,WNW,283,0.0,1.0,98,0.00,,,0.00,WUHU216DAVISVP2,2013-04-17 11:05:00,
2013-04-17 07:10:00,66.8,66.2,30.17,WNW,283,0.0,1.0,98,0.00,,,0.00,WUHU216DAVISVP2,2013-04-17 11:10:00,
2013-04-17 07:15:00,66.8,66.2,30.17,WNW,283,0.0,1.0,98,0.00,,,0.00,WUHU216DAVISVP2,2013-04-17 11:15:00,
2013-04-17 07:20:00,66.9,66.3,30.18,West,279,0.0,3.0,98,0.00,,,0.00,WUHU216DAVISVP2,2013-04-17 11:20:00,
2013-04-17 07:25:00,66.9,66.3,30.18,West,279,0.0,3.0,98,0.00,,,0.00,WUHU216DAVISVP2,2013-04-17 11:25:00,
2013-04-17 07:30:00,66.9,66.3,30.18,West,279,0.0,0.0,98,0.00,,,0.00,WUHU216DAVISVP2,2013-04-17 11:30:00,
2013-04-17 07:35:00,67.0,66.4,30.18,West,279,0.0,0.0,98,0.00,,,0.00,WUHU216DAVISVP2,2013-04-17 11:35:00,
2013-04-17 07:40:00,67.1,66.5,30.18,West,279,0.0,1.0,98,0.00,,,0.00,WUHU216DAVISVP2,2013-04-17 11:40:00,
2013-04-17 07:45:00,67.1,66.5,30.19,West,279,0.0,1.0,98,0.00,,,0.00,WUHU216DAVISVP2,2013-04-17 11:45:00,
2013-04-17 07:50:00,67.3,66.7,30.19,West,279,0.0,1.0,98,0.00,,,0.00,WUHU216DAVISVP2,2013-04-17 11:50:00,
2013-04-17 07:55:00,67.3,66.7,30.19,West,279,0.0,1.0,98,0.00,,,0.00,WUHU216DAVISVP2,2013-04-17 11:55:00,
2013-04-17 08:00:00,67.4,66.8,30.19,West,279,0.0,2.0,98,0.00,,,0.00,WUHU216DAVISVP2,2013-04-17 12:00:00,
2013-04-17 08:05:00,67.6,67.0,30.18,WNW,287,0.0,2.0,98,0.00,,,0.00,WUHU216DAVISVP2,2013-04-17 12:05:00,
2013-04-17 08:10:00,67.8,67.2,30.18,West,276,3.0,5.0,98,0.00,,,0.00,WUHU216DAVISVP2,2013-04-17 12:10:00,
2013-04-17 08:15:00,68.0,67.4,30.18,West,272,1.0,5.0,98,0.00,,,0.00,WUHU216DAVISVP2,2013-04-17 12:15:00,
2013-04-17 08:20:00,68.3,67.7,30.18,WNW,284,0.0,4.0,98,0.00,,,0.00,WUHU216DAVISVP2,2013-04-17 12:20:00,
2013-04-17 08:25:00,68.5,67.9,30.18,NW,323,0.0,7.0,98,0.00,,,0.00,WUHU216DAVISVP2,2013-04-17 12:25:00,
2013-04-17 08:30:00,68.7,68.1,30.18,NW,318,0.0,7.0,98,0.00,,,0.00,WUHU216DAVISVP2,2013-04-17 12:30:00,
2013-04-17 08:35:00,68.9,68.0,30.18,NNE,13,0.0,6.0,97,0.00,,,0.00,WUHU216DAVISVP2,2013-04-17 12:35:00,
2013-04-17 08:40:00,69.1,68.2,30.18,WNW,296,1.0,4.0,97,0.00,,,0.00,WUHU216DAVISVP2,2013-04-17 12:40:00,
2013-04-17 08:45:00,69.4,68.5,30.18,NW,313,0.0,5.0,97,0.00,,,0.00,WUHU216DAVISVP2,2013-04-17 12:45:00,
2013-04-17 08:50:00,69.6,68.4,30.18,NW,319,2.0,5.0,96,0.00,,,0.00,WUHU216DAVISVP2,2013-04-17 12:50:00,
2013-04-17 08:55:00,69.8,68.6,30.17,NW,314,3.0,5.0,96,0.00,,,0.00,WUHU216DAVISVP2,2013-04-17 12:55:00,
2013-04-17 09:00:00,69.9,68.4,30.18,SW,236,0.0,6.0,95,0.00,,,0.00,WUHU216DAVISVP2,2013-04-17 13:00:00,
2013-04-17 09:05:00,69.9,68.4,30.18,NW,323,3.0,6.0,95,0.00,,,0.00,WUHU216DAVISVP2,2013-04-17 13:05:00,
2013-04-17 09:10:00,69.9,68.4,30.18,WSW,249,3.0,4.0,95,0.00,,,0.00,WUHU216DAVISVP2,2013-04-17 13:10:00,
2013-04-17 09:15:00,70.1,68.6,30.17,WNW,293,0.0,3.0,95,0.00,,,0.00,WUHU216DAVISVP2,2013-04-17 13:15:00,
2013-04-17 09:20:00,70.2,68.7,30.18,WSW,252,3.0,5.0,95,0.00,,,0.00,WUHU216DAVISVP2,2013-04-17 13:20:00,
2013-04-17 09:25:00,70.3,68.5,30.18,West,268,3.0,5.0,94,0.00,,,0.00,WUHU216DAVISVP2,2013-04-17 13:25:00,
2013-04-17 09:30:00,70.4,68.6,30.18,NW,311,0.0,7.0,94,0.00,,,0.00,WUHU216DAVISVP2,2013-04-17 13:30:00,
2013-04-17 09:35:00,70.5,68.7,30.18,West,275,0.0,7.0,94,0.00,,,0.00,WUHU216DAVISVP2,2013-04-17 13:35:00,
2013-04-17 09:40:00,70.6,68.4,30.18,NW,311,3.0,4.0,93,0.00,,,0.00,WUHU216DAVISVP2,2013-04-17 13:40:00,
2013-04-17 09:45:00,70.6,68.4,30.18,WNW,289,0.0,4.0,93,0.00,,,0.00,WUHU216DAVISVP2,2013-04-17 13:45:00,
2013-04-17 09:50:00,70.7,68.9,30.18,West,272,3.0,4.0,94,0.00,,,0.00,WUHU216DAVISVP2,2013-04-17 13:50:00,
2013-04-17 09:55:00,70.9,68.7,30.18,NW,304,5.0,6.0,93,0.00,,,0.00,WUHU216DAVISVP2,2013-04-17 13:55:00,
2013-04-17 10:00:00,70.8,68.6,30.18,NNW,327,0.0,6.0,93,0.00,,,0.00,WUHU216DAVISVP2,2013-04-17 14:00:00,
2013-04-17 10:05:00,70.8,68.6,30.18,NW,322,0.0,5.0,93,0.00,,,0.00,WUHU216DAVISVP2,2013-04-17 14:05:00,
2013-04-17 10:10:00,70.8,68.6,30.18,NW,322,0.0,5.0,93,0.00,,,0.00,WUHU216DAVISVP2,2013-04-17 14:10:00,
2013-04-17 10:15:00,70.8,68.6,30.18,NW,309,0.0,5.0,93,0.00,,,0.00,WUHU216DAVISVP2,2013-04-17 14:15:00,
2013-04-17 10:20:00,70.8,68.6,30.18,NW,317,0.0,5.0,93,0.00,,,0.00,WUHU216DAVISVP2,2013-04-17 14:20:00,
2013-04-17 10:25:00,70.8,68.3,30.18,NW,316,1.0,5.0,92,0.00,,,0.00,WUHU216DAVISVP2,2013-04-17 14:25:00,
2013-04-17 10:30:00,70.8,68.6,30.18,WNW,294,0.0,6.0,93,0.00,,,0.00,WUHU216DAVISVP2,2013-04-17 14:30:00,
2013-04-17 10:35:00,71.0,68.8,30.18,West,262,3.0,6.0,93,0.00,,,0.00,WUHU216DAVISVP2,2013-04-17 14:35:00,
2013-04-17 10:40:00,71.1,68.6,30.18,NW,311,0.0,6.0,92,0.00,,,0.00,WUHU216DAVISVP2,2013-04-17 14:40:00,
2013-04-17 10:45:00,71.2,68.7,30.18,WNW,300,0.0,6.0,92,0.00,,,0.00,WUHU216DAVISVP2,2013-04-17 14:45:00,
2013-04-17 10:50:00,71.5,69.0,30.18,West,265,0.0,4.0,92,0.00,,,0.00,WUHU216DAVISVP2,2013-04-17 14:50:00,
2013-04-17 10:55:00,71.7,68.9,30.18,NNW,332,2.0,5.0,91,0.00,,,0.00,WUHU216DAVISVP2,2013-04-17 14:55:00,
2013-04-17 11:00:00,71.8,69.0,30.18,WNW,298,2.0,6.0,91,0.00,,,0.00,WUHU216DAVISVP2,2013-04-17 15:00:00,
2013-04-17 11:05:00,71.9,69.1,30.18,NW,316,1.0,6.0,91,0.00,,,0.00,WUHU216DAVISVP2,2013-04-17 15:05:00,
2013-04-17 11:10:00,72.0,68.9,30.18,WNW,292,0.0,7.0,90,0.00,,,0.00,WUHU216DAVISVP2,2013-04-17 15:10:00,
2013-04-17 11:15:00,71.9,68.8,30.19,NW,307,4.0,7.0,90,0.00,,,0.00,WUHU216DAVISVP2,2013-04-17 15:15:00,
2013-04-17 11:20:00,71.7,68.9,30.18,WSW,254,2.0,5.0,91,0.00,,,0.00,WUHU216DAVISVP2,2013-04-17 15:20:00,
2013-04-17 11:25:00,71.8,69.0,30.18,WSW,252,0.0,5.0,91,0.00,,,0.00,WUHU216DAVISVP2,2013-04-17 15:25:00,
2013-04-17 11:30:00,71.8,69.0,30.19,WSW,256,0.0,5.0,91,0.00,,,0.00,WUHU216DAVISVP2,2013-04-17 15:30:00,
2013-04-17 11:35:00,71.9,69.1,30.18,WNW,294,0.0,7.0,91,0.00,,,0.00,WUHU216DAVISVP2,2013-04-17 15:35:00,
2013-04-17 11:40:00,71.7,68.9,30.18,WSW,249,0.0,9.0,91,0.00,,,0.00,WUHU216DAVISVP2,2013-04-17 15:40:00,
2013-04-17 11:45:00,71.8,69.0,30.18,West,265,0.0,9.0,91,0.00,,,0.00,WUHU216DAVISVP2,2013-04-17 15:45:00,
2013-04-17 11:50:00,72.2,69.4,30.18,West,269,3.0,6.0,91,0.00,,,0.00,WUHU216DAVISVP2,2013-04-17 15:50:00,
2013-04-17 11:55:00,72.4,69.3,30.18,SW,232,0.0,6.0,90,0.00,,,0.00,WUHU216DAVISVP2,2013-04-17 15:55:00,
2013-04-17 12:00:00,72.7,69.6,30.18,SSW,204,1.0,5.0,90,0.00,,,0.00,WUHU216DAVISVP2,2013-04-17 16:00:00,
2013-04-17 12:05:00,72.9,69.8,30.17,West,275,0.0,4.0,90,0.00,,,0.00,WUHU216DAVISVP2,2013-04-17 16:05:00,
2013-04-17 12:10:00,73.3,69.9,30.17,West,279,0.0,4.0,89,0.00,,,0.00,WUHU216DAVISVP2,2013-04-17 16:10:00,
2013-04-17 12:15:00,73.6,69.8,30.17,West,270,2.0,5.0,88,0.00,,,0.00,WUHU216DAVISVP2,2013-04-17 16:15:00,
2013-04-17 12:20:00,73.7,69.9,30.17,WNW,287,0.0,5.0,88,0.00,,,0.00,WUHU216DAVISVP2,2013-04-17 16:20:00,
2013-04-17 12:25:00,73.4,69.6,30.17,WNW,285,0.0,5.0,88,0.00,,,0.00,WUHU216DAVISVP2,2013-04-17 16:25:00,
2013-04-17 12:30:00,73.0,69.2,30.17,West,281,0.0,5.0,88,0.00,,,0.00,WUHU216DAVISVP2,2013-04-17 16:30:00,
2013-04-17 12:35:00,72.9,69.5,30.17,West,279,0.0,5.0,89,0.00,,,0.00,WUHU216DAVISVP2,2013-04-17 16:35:00,
2013-04-17 12:40:00,72.8,69.4,30.18,SW,227,0.0,3.0,89,0.00,,,0.00,WUHU216DAVISVP2,2013-04-17 16:40:00,
2013-04-17 12:45:00,72.8,69.4,30.17,North,9,0.0,3.0,89,0.00,,,0.00,WUHU216DAVISVP2,2013-04-17 16:45:00,
2013-04-17 12:50:00,72.8,69.4,30.17,WSW,258,0.0,3.0,89,0.00,,,0.00,WUHU216DAVISVP2,2013-04-17 16:50:00,
2013-04-17 12:55:00,73.1,69.7,30.17,WSW,255,0.0,1.0,89,0.00,,,0.00,WUHU216DAVISVP2,2013-04-17 16:55:00,
2013-04-17 13:00:00,73.3,69.9,30.17,WSW,252,0.0,5.0,89,0.00,,,0.00,WUHU216DAVISVP2,2013-04-17 17:00:00,
2013-04-17 13:05:00,73.3,69.5,30.16,SW,227,0.0,5.0,88,0.00,,,0.00,WUHU216DAVISVP2,2013-04-17 17:05:00,
2013-04-17 13:10:00,73.3,69.5,30.16,North,5,0.0,3.0,88,0.00,,,0.00,WUHU216DAVISVP2,2013-04-17 17:10:00,
2013-04-17 13:15:00,73.4,69.6,30.16,SW,231,0.0,4.0,88,0.00,,,0.00,WUHU216DAVISVP2,2013-04-17 17:15:00,
2013-04-17 13:20:00,73.4,69.6,30.16,SSW,202,0.0,4.0,88,0.00,,,0.00,WUHU216DAVISVP2,2013-04-17 17:20:00,
2013-04-17 13:25:00,73.6,69.8,30.16,SW,219,0.0,2.0,88,0.00,,,0.00,WUHU216DAVISVP2,2013-04-17 17:25:00,
2013-04-17 13:30:00,73.8,69.7,30.16,WSW,244,3.0,6.0,87,0.00,,,0.00,WUHU216DAVISVP2,2013-04-17 17:30:00,
2013-04-17 13:35:00,73.8,69.4,30.16,SW,220,0.0,6.0,86,0.00,,,0.00,WUHU216DAVISVP2,2013-04-17 17:35:00,
2013-04-17 13:40:00,73.7,69.6,30.16,SW,227,2.0,5.0,87,0.00,,,0.00,WUHU216DAVISVP2,2013-04-17 17:40:00,
2013-04-17 13:45:00,73.8,69.7,30.16,North,11,0.0,5.0,87,0.00,,,0.00,WUHU216DAVISVP2,2013-04-17 17:45:00,
2013-04-17 13:50:00,74.2,70.1,30.16,NE,55,0.0,4.0,87,0.00,,,0.00,WUHU216DAVISVP2,2013-04-17 17:50:00,
2013-04-17 13:55:00,74.8,70.4,30.16,North,360,0.0,1.0,86,0.00,,,0.00,WUHU216DAVISVP2,2013-04-17 17:55:00,
2013-04-17 14:00:00,75.1,70.0,30.15,WSW,242,2.0,7.0,84,0.00,,,0.00,WUHU216DAVISVP2,2013-04-17 18:00:00,
2013-04-17 14:05:00,74.8,69.7,30.15,SW,217,0.0,7.0,84,0.00,,,0.00,WUHU216DAVISVP2,2013-04-17 18:05:00,
2013-04-17 14:10:00,74.5,69.4,30.15,SW,236,2.0,5.0,84,0.00,,,0.00,WUHU216DAVISVP2,2013-04-17 18:10:00,
2013-04-17 14:15:00,74.1,69.3,30.15,WSW,240,0.0,5.0,85,0.00,,,0.00,WUHU216DAVISVP2,2013-04-17 18:15:00,
2013-04-17 14:20:00,74.0,69.6,30.15,SSW,213,0.0,4.0,86,0.00,,,0.00,WUHU216DAVISVP2,2013-04-17 18:20:00,
2013-04-17 14:25:00,73.9,69.5,30.15,SSW,211,0.0,4.0,86,0.00,,,0.00,WUHU216DAVISVP2,2013-04-17 18:25:00,
2013-04-17 14:30:00,73.9,69.5,30.14,South,188,0.0,1.0,86,0.00,,,0.00,WUHU216DAVISVP2,2013-04-17 18:30:00,
2013-04-17 14:35:00,73.8,69.4,30.14,WSW,245,0.0,3.0,86,0.00,,,0.00,WUHU216DAVISVP2,2013-04-17 18:35:00,
2013-04-17 14:40:00,73.6,69.2,30.14,SW,236,0.0,6.0,86,0.00,,,0.00,WUHU216DAVISVP2,2013-04-17 18:40:00,
2013-04-17 14:45:00,73.5,69.4,30.14,WSW,242,0.0,6.0,87,0.00,,,0.00,WUHU216DAVISVP2,2013-04-17 18:45:00,
2013-04-17 14:50:00,73.5,69.4,30.14,WSW,241,1.0,5.0,87,0.00,,,0.00,WUHU216DAVISVP2,2013-04-17 18:50:00,
2013-04-17 14:55:00,73.2,69.1,30.14,SSW,213,1.0,5.0,87,0.00,,,0.00,WUHU216DAVISVP2,2013-04-17 18:55:00,
2013-04-17 15:00:00,73.2,69.1,30.14,SW,217,0.0,4.0,87,0.00,,,0.00,WUHU216DAVISVP2,2013-04-17 19:00:00,
2013-04-17 15:05:00,73.1,69.0,30.14,West,262,0.0,4.0,87,0.00,,,0.00,WUHU216DAVISVP2,2013-04-17 19:05:00,
2013-04-17 15:10:00,73.1,69.0,30.13,West,269,0.0,5.0,87,0.00,,,0.00,WUHU216DAVISVP2,2013-04-17 19:10:00,
2013-04-17 15:15:00,73.0,68.9,30.13,SW,223,0.0,5.0,87,0.00,,,0.00,WUHU216DAVISVP2,2013-04-17 19:15:00,
2013-04-17 15:20:00,72.9,69.1,30.13,NNE,22,0.0,3.0,88,0.00,,,0.00,WUHU216DAVISVP2,2013-04-17 19:20:00,
2013-04-17 15:25:00,73.1,69.3,30.12,West,280,0.0,4.0,88,0.00,,,0.00,WUHU216DAVISVP2,2013-04-17 19:25:00,
2013-04-17 15:30:00,73.1,69.3,30.12,WNW,298,0.0,4.0,88,0.00,,,0.00,WUHU216DAVISVP2,2013-04-17 19:30:00,
2013-04-17 15:35:00,73.0,68.9,30.13,West,264,0.0,4.0,87,0.00,,,0.00,WUHU216DAVISVP2,2013-04-17 19:35:00,
2013-04-17 15:40:00,72.9,69.1,30.13,WNW,299,0.0,5.0,88,0.00,,,0.00,WUHU216DAVISVP2,2013-04-17 19:40:00,
2013-04-17 15:45:00,72.8,69.0,30.13,WNW,294,0.0,5.0,88,0.00,,,0.00,WUHU216DAVISVP2,2013-04-17 19:45:00,
2013-04-17 15:50:00,72.6,68.8,30.13,WSW,238,0.0,5.0,88,0.00,,,0.00,WUHU216DAVISVP2,2013-04-17 19:50:00,
2013-04-17 15:55:00,72.6,68.8,30.13,WSW,250,1.0,5.0,88,0.00,,,0.00,WUHU216DAVISVP2,2013-04-17 19:55:00,
2013-04-17 16:00:00,72.5,68.7,30.12,WNW,303,0.0,5.0,88,0.00,,,0.00,WUHU216DAVISVP2,2013-04-17 20:00:00,
2013-04-17 16:05:00,72.5,68.7,30.12,West,263,0.0,5.0,88,0.00,,,0.00,WUHU216DAVISVP2,2013-04-17 20:05:00,
2013-04-17 16:10:00,72.6,69.2,30.12,South,169,0.0,4.0,89,0.00,,,0.00,WUHU216DAVISVP2,2013-04-17 20:10:00,
2013-04-17 16:15:00,72.8,69.0,30.12,WNW,293,0.0,1.0,88,0.00,,,0.00,WUHU216DAVISVP2,2013-04-17 20:15:00,
2013-04-17 16:20:00,72.7,68.6,30.13,NW,313,0.0,6.0,87,0.00,,,0.00,WUHU216DAVISVP2,2013-04-17 20:20:00,
2013-04-17 16:25:00,72.6,68.8,30.13,West,280,0.0,6.0,88,0.00,,,0.00,WUHU216DAVISVP2,2013-04-17 20:25:00,
2013-04-17 16:30:00,72.5,68.4,30.12,WNW,296,0.0,7.0,87,0.00,,,0.00,WUHU216DAVISVP2,2013-04-17 20:30:00,
2013-04-17 16:35:00,72.3,68.2,30.12,WNW,292,1.0,7.0,87,0.00,,,0.00,WUHU216DAVISVP2,2013-04-17 20:35:00,
2013-04-17 16:40:00,72.2,68.1,30.12,NW,323,0.0,7.0,87,0.00,,,0.00,WUHU216DAVISVP2,2013-04-17 20:40:00,
2013-04-17 16:45:00,72.2,68.1,30.12,NW,317,4.0,4.0,87,0.00,,,0.00,WUHU216DAVISVP2,2013-04-17 20:45:00,
2013-04-17 16:50:00,72.3,68.2,30.12,NW,307,0.0,6.0,87,0.00,,,0.00,WUHU216DAVISVP2,2013-04-17 20:50:00,
2013-04-17 16:55:00,72.3,68.2,30.12,NW,312,0.0,6.0,87,0.00,,,0.00,WUHU216DAVISVP2,2013-04-17 20:55:00,
2013-04-17 17:00:00,72.3,68.2,30.12,NW,319,1.0,5.0,87,0.00,,,0.00,WUHU216DAVISVP2,2013-04-17 21:00:00,
2013-04-17 17:05:00,72.3,68.2,30.12,NW,306,0.0,5.0,87,0.00,,,0.00,WUHU216DAVISVP2,2013-04-17 21:05:00,
2013-04-17 17:10:00,72.4,68.3,30.12,NNW,336,0.0,5.0,87,0.00,,,0.00,WUHU216DAVISVP2,2013-04-17 21:10:00,
2013-04-17 17:15:00,72.5,68.4,30.12,NW,314,1.0,6.0,87,0.00,,,0.00,WUHU216DAVISVP2,2013-04-17 21:15:00,
2013-04-17 17:20:00,72.6,68.5,30.12,NW,318,0.0,6.0,87,0.00,,,0.00,WUHU216DAVISVP2,2013-04-17 21:20:00,
2013-04-17 17:25:00,72.9,68.8,30.12,NW,313,4.0,4.0,87,0.00,,,0.00,WUHU216DAVISVP2,2013-04-17 21:25:00,
2013-04-17 17:30:00,73.1,68.7,30.12,WNW,303,0.0,5.0,86,0.00,,,0.00,WUHU216DAVISVP2,2013-04-17 21:30:00,
2013-04-17 17:35:00,73.3,68.9,30.12,NW,311,1.0,5.0,86,0.00,,,0.00,WUHU216DAVISVP2,2013-04-17 21:35:00,
2013-04-17 17:40:00,73.4,69.0,30.13,NW,313,0.0,5.0,86,0.00,,,0.00,WUHU216DAVISVP2,2013-04-17 21:40:00,
2013-04-17 17:45:00,73.4,69.0,30.12,WNW,294,0.0,3.0,86,0.00,,,0.00,WUHU216DAVISVP2,2013-04-17 21:45:00,
2013-04-17 17:50:00,73.1,68.7,30.12,NW,306,3.0,5.0,86,0.00,,,0.00,WUHU216DAVISVP2,2013-04-17 21:50:00,
2013-04-17 17:55:00,72.9,68.8,30.12,NW,311,0.0,5.0,87,0.00,,,0.00,WUHU216DAVISVP2,2013-04-17 21:55:00,
2013-04-17 18:00:00,72.9,68.8,30.12,NW,322,0.0,4.0,87,0.00,,,0.00,WUHU216DAVISVP2,2013-04-17 22:00:00,
2013-04-17 18:05:00,73.0,68.9,30.12,West,263,2.0,5.0,87,0.00,,,0.00,WUHU216DAVISVP2,2013-04-17 22:05:00,
2013-04-17 18:10:00,72.9,68.8,30.12,NW,313,2.0,5.0,87,0.00,,,0.00,WUHU216DAVISVP2,2013-04-17 22:10:00,
2013-04-17 18:15:00,72.7,68.6,30.12,NW,320,0.0,5.0,87,0.00,,,0.00,WUHU216DAVISVP2,2013-04-17 22:15:00,
2013-04-17 18:20:00,72.4,68.3,30.12,NW,320,0.0,3.0,87,0.00,,,0.00,WUHU216DAVISVP2,2013-04-17 22:20:00,
2013-04-17 18:25:00,72.2,68.4,30.12,NNW,329,0.0,3.0,88,0.00,,,0.00,WUHU216DAVISVP2,2013-04-17 22:25:00,
2013-04-17 18:30:00,71.9,68.2,30.12,NW,319,0.0,4.0,88,0.00,,,0.00,WUHU216DAVISVP2,2013-04-17 22:30:00,
2013-04-17 18:34:00,71.7,68.3,30.12,NW,321,0.0,5.0,89,0.00,,,0.00,WUHU216DAVISVP2,2013-04-17 22:34:00,
2013-04-17 18:39:00,71.7,68.6,30.12,WSW,258,2.0,5.0,90,0.00,,,0.00,WUHU216DAVISVP2,2013-04-17 22:39:00,
2013-04-17 18:44:00,71.6,68.2,30.12,WSW,250,0.0,4.0,89,0.00,,,0.00,WUHU216DAVISVP2,2013-04-17 22:44:00,
2013-04-17 18:49:00,71.6,68.2,30.12,West,279,0.0,4.0,89,0.00,,,0.00,WUHU216DAVISVP2,2013-04-17 22:49:00,
2013-04-17 18:54:00,71.5,68.1,30.12,WNW,297,0.0,2.0,89,0.00,,,0.00,WUHU216DAVISVP2,2013-04-17 22:54:00,
2013-04-17 18:59:00,71.4,68.0,30.12,WNW,300,0.0,3.0,89,0.00,,,0.00,WUHU216DAVISVP2,2013-04-17 22:59:00,
2013-04-17 19:04:00,71.2,68.1,30.12,NW,323,0.0,4.0,90,0.00,,,0.00,WUHU216DAVISVP2,2013-04-17 23:04:00,
2013-04-17 19:09:00,71.1,68.0,30.12,West,278,0.0,4.0,90,0.00,,,0.00,WUHU216DAVISVP2,2013-04-17 23:09:00,
2013-04-17 19:14:00,71.0,67.9,30.11,West,271,0.0,3.0,90,0.00,,,0.00,WUHU216DAVISVP2,2013-04-17 23:14:00,
2013-04-17 19:19:00,70.9,67.8,30.12,WNW,297,1.0,3.0,90,0.00,,,0.00,WUHU216DAVISVP2,2013-04-17 23:19:00,
2013-04-17 19:24:00,70.8,68.0,30.12,NW,311,0.0,5.0,91,0.00,,,0.00,WUHU216DAVISVP2,2013-04-17 23:24:00,
2013-04-17 19:29:00,70.7,67.9,30.11,West,259,0.0,5.0,91,0.00,,,0.00,WUHU216DAVISVP2,2013-04-17 23:29:00,
2013-04-17 19:34:00,70.6,67.8,30.11,NW,325,2.0,4.0,91,0.00,,,0.00,WUHU216DAVISVP2,2013-04-17 23:34:00,
2013-04-17 19:39:00,70.5,67.7,30.11,WNW,295,0.0,4.0,91,0.00,,,0.00,WUHU216DAVISVP2,2013-04-17 23:39:00,
2013-04-17 19:44:00,70.3,67.8,30.11,WSW,241,0.0,3.0,92,0.00,,,0.00,WUHU216DAVISVP2,2013-04-17 23:44:00,
2013-04-17 19:49:00,70.2,67.7,30.11,NW,313,0.0,2.0,92,0.00,,,0.00,WUHU216DAVISVP2,2013-04-17 23:49:00,
2013-04-17 19:54:00,70.1,67.6,30.12,WSW,251,0.0,4.0,92,0.00,,,0.00,WUHU216DAVISVP2,2013-04-17 23:54:00,
2013-04-17 19:59:00,70.0,67.5,30.12,West,273,0.0,4.0,92,0.00,,,0.00,WUHU216DAVISVP2,2013-04-17 23:59:00,
2013-04-17 20:04:00,69.9,67.4,30.12,NW,306,0.0,3.0,92,0.00,,,0.00,WUHU216DAVISVP2,2013-04-18 00:04:00,
2013-04-17 20:09:00,69.8,67.7,30.11,NW,307,0.0,3.0,93,0.00,,,0.00,WUHU216DAVISVP2,2013-04-18 00:09:00,
2013-04-17 20:14:00,69.7,67.6,30.11,NNW,327,0.0,4.0,93,0.00,,,0.00,WUHU216DAVISVP2,2013-04-18 00:14:00,
2013-04-17 20:19:00,69.7,67.6,30.12,NW,319,0.0,4.0,93,0.00,,,0.00,WUHU216DAVISVP2,2013-04-18 00:19:00,
2013-04-17 20:24:00,69.6,67.5,30.11,WNW,296,0.0,3.0,93,0.00,,,0.00,WUHU216DAVISVP2,2013-04-18 00:24:00,
2013-04-17 20:29:00,69.5,67.7,30.12,WNW,300,0.0,3.0,94,0.00,,,0.00,WUHU216DAVISVP2,2013-04-18 00:29:00,
2013-04-17 20:34:00,69.5,67.7,30.12,WNW,300,0.0,3.0,94,0.00,,,0.00,WUHU216DAVISVP2,2013-04-18 00:34:00,
2013-04-17 20:39:00,69.4,67.6,30.12,NW,317,0.0,4.0,94,0.00,,,0.00,WUHU216DAVISVP2,2013-04-18 00:39:00,
2013-04-17 20:44:00,69.4,67.6,30.12,NW,317,0.0,4.0,94,0.00,,,0.00,WUHU216DAVISVP2,2013-04-18 00:44:00,
2013-04-17 20:49:00,69.3,67.5,30.12,WNW,298,0.0,1.0,94,0.00,,,0.00,WUHU216DAVISVP2,2013-04-18 00:49:00,
2013-04-17 20:54:00,69.3,67.5,30.12,WNW,302,0.0,4.0,94,0.00,,,0.00,WUHU216DAVISVP2,2013-04-18 00:54:00,
2013-04-17 20:59:00,69.2,67.4,30.12,WSW,244,0.0,4.0,94,0.00,,,0.00,WUHU216DAVISVP2,2013-04-18 00:59:00,
2013-04-17 21:04:00,69.2,67.4,30.13,WSW,246,0.0,4.0,94,0.00,,,0.00,WUHU216DAVISVP2,2013-04-18 01:04:00,
2013-04-17 21:09:00,69.3,67.5,30.13,NW,313,0.0,4.0,94,0.00,,,0.00,WUHU216DAVISVP2,2013-04-18 01:09:00,
2013-04-17 21:14:00,69.3,67.5,30.13,WNW,302,0.0,4.0,94,0.00,,,0.00,WUHU216DAVISVP2,2013-04-18 01:14:00,
2013-04-17 21:19:00,69.3,67.5,30.13,WNW,298,2.0,3.0,94,0.00,,,0.00,WUHU216DAVISVP2,2013-04-18 01:19:00,
2013-04-17 21:24:00,69.3,67.5,30.12,West,280,0.0,3.0,94,0.00,,,0.00,WUHU216DAVISVP2,2013-04-18 01:24:00,
2013-04-17 21:29:00,69.4,67.6,30.12,WNW,288,0.0,3.0,94,0.00,,,0.00,WUHU216DAVISVP2,2013-04-18 01:29:00,
2013-04-17 21:34:00,69.3,67.5,30.13,WNW,289,0.0,1.0,94,0.00,,,0.00,WUHU216DAVISVP2,2013-04-18 01:34:00,
2013-04-17 21:39:00,69.3,67.5,30.12,WNW,289,0.0,1.0,94,0.00,,,0.00,WUHU216DAVISVP2,2013-04-18 01:39:00,
2013-04-17 21:44:00,69.3,67.5,30.12,WNW,289,0.0,1.0,94,0.00,,,0.00,WUHU216DAVISVP2,2013-04-18 01:44:00,
2013-04-17 21:49:00,69.3,67.5,30.12,WNW,289,0.0,1.0,94,0.00,,,0.00,WUHU216DAVISVP2,2013-04-18 01:49:00,
2013-04-17 21:54:00,69.3,67.5,30.12,WNW,296,0.0,2.0,94,0.00,,,0.00,WUHU216DAVISVP2,2013-04-18 01:54:00,
2013-04-17 21:59:00,69.2,67.4,30.12,NW,306,0.0,2.0,94,0.00,,,0.00,WUHU216DAVISVP2,2013-04-18 01:59:00,
2013-04-17 22:04:00,69.2,67.4,30.12,NW,306,0.0,1.0,94,0.00,,,0.00,WUHU216DAVISVP2,2013-04-18 02:04:00,
2013-04-17 22:09:00,69.2,67.4,30.12,NW,306,0.0,1.0,94,0.00,,,0.00,WUHU216DAVISVP2,2013-04-18 02:09:00,
2013-04-17 22:14:00,69.1,67.6,30.12,NW,306,0.0,1.0,95,0.00,,,0.00,WUHU216DAVISVP2,2013-04-18 02:14:00,
2013-04-17 22:19:00,69.1,67.6,30.12,NW,306,0.0,0.0,95,0.00,,,0.00,WUHU216DAVISVP2,2013-04-18 02:19:00,
2013-04-17 22:24:00,69.1,67.6,30.13,NW,306,0.0,1.0,95,0.00,,,0.00,WUHU216DAVISVP2,2013-04-18 02:24:00,
2013-04-17 22:29:00,69.1,67.6,30.12,NW,306,0.0,1.0,95,0.00,,,0.00,WUHU216DAVISVP2,2013-04-18 02:29:00,
2013-04-17 22:34:00,69.1,67.6,30.13,NW,306,0.0,0.0,95,0.00,,,0.00,WUHU216DAVISVP2,2013-04-18 02:34:00,
2013-04-17 22:39:00,69.1,67.6,30.12,NW,306,0.0,1.0,95,0.00,,,0.00,WUHU216DAVISVP2,2013-04-18 02:39:00,
2013-04-17 22:44:00,69.1,67.6,30.12,NW,309,0.0,2.0,95,0.00,,,0.00,WUHU216DAVISVP2,2013-04-18 02:44:00,
2013-04-17 22:49:00,69.1,67.6,30.12,NW,309,0.0,2.0,95,0.00,,,0.00,WUHU216DAVISVP2,2013-04-18 02:49:00,
2013-04-17 22:54:00,69.1,67.6,30.12,NW,309,0.0,1.0,95,0.00,,,0.00,WUHU216DAVISVP2,2013-04-18 02:54:00,
2013-04-17 22:59:00,69.1,67.6,30.12,NW,309,0.0,1.0,95,0.00,,,0.00,WUHU216DAVISVP2,2013-04-18 02:59:00,
2013-04-17 23:04:00,69.0,67.5,30.11,NW,309,0.0,1.0,95,0.00,,,0.00,WUHU216DAVISVP2,2013-04-18 03:04:00,
2013-04-17 23:09:00,69.0,67.5,30.11,NW,309,0.0,1.0,95,0.00,,,0.00,WUHU216DAVISVP2,2013-04-18 03:09:00,
2013-04-17 23:14:00,69.0,67.5,30.11,NW,309,0.0,1.0,95,0.00,,,0.00,WUHU216DAVISVP2,2013-04-18 03:14:00,
2013-04-17 23:19:00,68.9,67.7,30.11,NW,309,0.0,1.0,96,0.00,,,0.00,WUHU216DAVISVP2,2013-04-18 03:19:00,
2013-04-17 23:24:00,68.9,67.7,30.11,NW,309,0.0,0.0,96,0.00,,,0.00,WUHU216DAVISVP2,2013-04-18 03:24:00,
2013-04-17 23:29:00,68.8,67.6,30.11,NW,309,0.0,0.0,96,0.00,,,0.00,WUHU216DAVISVP2,2013-04-18 03:29:00,
2013-04-17 23:34:00,68.8,67.6,30.11,WSW,246,0.0,4.0,96,0.00,,,0.00,WUHU216DAVISVP2,2013-04-18 03:34:00,
2013-04-17 23:39:00,68.8,67.6,30.10,WSW,250,0.0,4.0,96,0.00,,,0.00,WUHU216DAVISVP2,2013-04-18 03:39:00,
2013-04-17 23:44:00,68.7,67.5,30.10,WSW,250,0.0,3.0,96,0.00,,,0.00,WUHU216DAVISVP2,2013-04-18 03:44:00,
2013-04-17 23:49:00,68.6,67.4,30.10,WSW,250,0.0,0.0,96,0.00,,,0.00,WUHU216DAVISVP2,2013-04-18 03:49:00,
2013-04-17 23:54:00,68.6,67.4,30.11,WSW,250,0.0,0.0,96,0.00,,,0.00,WUHU216DAVISVP2,2013-04-18 03:54:00,
2013-04-17 23:59:00,68.6,67.4,30.10,WSW,250,0.0,0.0,96,0.00,,,0.00,WUHU216DAVISVP2,2013-04-18 03:59:00,